[[{"header":{"parameterUnit":"m.s-1","parameterCategory":2,"la1":30.2991,"la2":30.254,"lo1":-89.0895,"lo2":-89.0444,"dy":0.0017,"dx":0.0017,"nx":28,"ny":28,"refTime":"2023-04-27T21:00:00:Z","depth":"0","parameterNumber":2,"parameterNumberName":"U-component_of_CURRENTS"},"data":[0,0,0,0,0,0,0,0,0,0,0,0,0,0,0,0,0,0,0,0,0,0,0,0,0,0,0,0,0,0,0,0,0,0,0,0,0,0,0,0,0,0,0,0,0,0,0,0,0,0,0,0,0,0,0,0,0,0,0.4374,0.4375,0,0.4379,0.4378,0.4378,0.4353,0.4353,0.4353,0.4353,0.4257,0.4255,0.4252,0,0,0,0,0,0,0,0,0,0,0,0,0,0.4427,0.4425,0.4374,0.4375,0.4376,0.4379,0.4378,0.4377,0.4353,0.4353,0.4353,0.4353,0.4258,0.4255,0.4252,0,0,0,0,0,0,0,0,0,0,0,0,0,0.4408,0.4425,0.4374,0.437,0.437,0.4379,0.4378,0.4377,0.4353,0.4353,0.4353,0.4353,0.4259,0.4255,0.4252,0.4227,0,0,0.424,0.4238,0,0,0,0,0,0,0,0,0.4409,0.4405,0.437,0.437,0.437,0.4372,0.4362,0.4325,0.4353,0.4351,0.4353,0.4353,0.4292,0.4285,0.4276,0.4223,0.4219,0.424,0.4237,0.4236,0.4234,0,0,0,0,0,0,0,0.441,0.4405,0.4368,0.4371,0.4371,0.4397,0.4392,0.4355,0.4313,0.4351,0.4352,0.4365,0.429,0.428,0.4274,0.4217,0.424,0.4236,0.4234,0.4232,0.4155,0.4155,0,0,0,0,0,0,0.442,0.4405,0.4368,0.4369,0.4399,0.4396,0.4391,0.4365,0.4316,0.4311,0.4365,0.4364,0.4287,0.4278,0.427,0.4254,0.4236,0.4232,0.423,0.4154,0.4155,0.4155,0,0,0,0,0,0,0.4421,0.4415,0.4368,0.4396,0.4393,0.4395,0.4367,0.4366,0.436,0.4329,0.432,0.4363,0.4286,0.4275,0.4241,0.4249,0.423,0.4227,0.4154,0.4154,0.4155,0.4212,0,0,0,0,0,0,0.4421,0.4414,0.4394,0.4395,0.4392,0.4375,0.4368,0.4366,0.4372,0.437,0.4324,0.4315,0.4285,0.4248,0.4238,0.4244,0.4224,0.4154,0.4154,0.4155,0.4209,0.4214,0.4218,0,0,0,0,0,0.4423,0.4373,0.4392,0.4388,0.4364,0.4376,0.4376,0.4374,0.4372,0.4368,0.434,0.4317,0.4244,0.4244,0.4233,0.4238,0.4153,0.4154,0.4155,0.4207,0.4213,0.4218,0,0,0,0,0,0,0.435,0.4368,0.4387,0.4337,0.437,0.4375,0.4359,0.4378,0.4354,0.434,0.4313,0.4301,0.4283,0.4248,0.425,0.4218,0.4197,0.4196,0.4242,0.4246,0.425,0.4217,0.422,0,0,0,0,0,0.4339,0.4318,0.4356,0.4315,0.4331,0.4354,0.4358,0.4368,0.4357,0.4346,0.4327,0.4295,0.4276,0.4251,0.4228,0.4196,0.4198,0.4194,0.4198,0.4202,0.4167,0.421,0.4216,0.4157,0.4157,0.4157,0,0,0.4285,0.4306,0.4281,0.4304,0.4316,0.4327,0.4351,0.4352,0.4356,0.4337,0.4312,0.4312,0.4275,0.4254,0.4241,0.4222,0.4226,0.4203,0.4206,0.4168,0.4212,0.4218,0.4223,0.4157,0.4157,0.4157,0,0,0.4187,0.4203,0.4165,0.4213,0.4262,0.4291,0.4301,0.4329,0.4333,0.433,0.4325,0.4321,0.4284,0.4265,0.4247,0.4252,0.4259,0.426,0.4236,0.4281,0.4286,0.4291,0.4333,0.4341,0.4248,0.4248,0.4248,0,0.4124,0.4112,0.4156,0.4169,0.4208,0.4278,0.4278,0.4292,0.4308,0.4301,0.4322,0.4295,0.4282,0.4248,0.4262,0.426,0.4292,0.4226,0.4288,0.4292,0.4296,0.4338,0.4346,0.4251,0.4251,0.4251,0.425,0,0.4027,0.4047,0.4035,0.4085,0.4118,0.4141,0.4202,0.4216,0.4251,0.427,0.4268,0.4273,0.425,0.4269,0.4264,0.4279,0.4299,0.4307,0.428,0.4306,0.4348,0.4356,0.4255,0.4254,0.4253,0.4253,0,0,0.385,0.3943,0.3953,0.399,0.4101,0.4107,0.4128,0.4163,0.4152,0.4197,0.4181,0.4196,0.422,0.4202,0.4221,0.4255,0.4341,0.4293,0.4294,0.4341,0.4454,0.4343,0.434,0.4382,0.4382,0.4383,0.4486,0,0.3786,0.3785,0.3866,0.3894,0.3917,0.4023,0.4036,0.4071,0.4109,0.411,0.4142,0.4139,0.419,0.4194,0.4242,0.4311,0.4357,0.4312,0.4412,0.4414,0.4318,0.4342,0.4127,0.4188,0.4493,0.4494,0.4495,0,0.3711,0.3737,0.3726,0.3835,0.3849,0.3862,0.3912,0.3935,0.3968,0.4001,0.4023,0.4058,0.4102,0.4153,0.4283,0.4264,0.4353,0.4415,0.4422,0.4286,0.4313,0.4203,0.419,0.4039,0.4506,0.4505,0.4504,0,0.359,0.3671,0.3655,0.3695,0.3786,0.3784,0.383,0.3873,0.3889,0.3922,0.3936,0.4002,0.4033,0.4158,0.4292,0.4308,0.4438,0.4476,0.4455,0.445,0.4259,0.4233,0.4101,0.4562,0.4562,0.4561,0.4561,0,0.3523,0.3532,0.359,0.3583,0.3589,0.3676,0.3668,0.3722,0.3768,0.3767,0.3863,0.3872,0.4043,0.4134,0.4273,0.4371,0.4433,0.4434,0.4457,0.4274,0.425,0.4102,0.4096,0.4565,0.4565,0.4564,0.4563,0,0.3384,0.3434,0.3441,0.3502,0.3527,0.3514,0.3604,0.3583,0.3659,0.3661,0.3676,0.3789,0.3907,0.4063,0.4252,0.4318,0.4308,0.446,0.4225,0.4216,0.402,0.4028,0.3826,0.3752,0.4445,0.4443,0.4441,0,0.3288,0.3263,0.3339,0.3347,0.3372,0.3392,0.3399,0.3509,0.351,0.3601,0.3583,0.3688,0.3787,0.4,0.4112,0.4296,0.4205,0.4155,0.412,0.3945,0.3975,0.3869,0.3816,0.3924,0.3918,0.3913,0.3909,0,0.3116,0.3149,0.3158,0.3205,0.3217,0.3236,0.3266,0.3268,0.337,0.3398,0.346,0.3553,0.3729,0.3784,0.3957,0.4043,0.3906,0.4056,0.3936,0.3579,0.3394,0.3354,0.3938,0.3865,0.387,0.3873,0.3875,0.3877,0.299,0.2988,0.3038,0.3075,0.3094,0.309,0.3058,0.3099,0.3125,0.3127,0.327,0.3303,0.3401,0.3624,0.3698,0.3547,0.3671,0.3435,0.3477,0.3396,0.3229,0.3699,0.3607,0.361,0.3613,0.3615,0.3617,0,0.2848,0.2889,0.2912,0.2967,0.2931,0.299,0.297,0.2901,0.2882,0.2912,0.2957,0.2929,0.2961,0.3041,0.3031,0.2975,0.2917,0.2868,0.2666,0.2667,0.312,0.2995,0.2688,0.2688,0.2688,0.2688,0.2689,0.2689,0.28,0.2797,0.2846,0.2816,0.2813,0.2722,0.2677,0.2592,0.2577,0.2469,0.2405,0.2443,0.2566,0.2537,0.2447,0.2424,0.2323,0.219,0.2291,0.2592,0.2647,0.2699,0.2572,0.2182,0.2182,0.1666,0.1662,0.1659]},{"header":{"parameterUnit":"m.s-1","parameterCategory":2,"la1":30.2991,"la2":30.254,"lo1":-89.0895,"lo2":-89.0444,"dy":0.0017,"dx":0.0017,"nx":28,"ny":28,"refTime":"2023-04-27T21:00:00:Z","depth":"0","parameterNumber":3,"parameterNumberName":"V-component_of_CURRENTS"},"data":[0,0,0,0,0,0,0,0,0,0,0,0,0,0,0,0,0,0,0,0,0,0,0,0,0,0,0,0,0,0,0,0,0,0,0,0,0,0,0,0,0,0,0,0,0,0,0,0,0,0,0,0,0,0,0,0,0,0,-0.0511,-0.0511,0,-0.0484,-0.0483,-0.0483,-0.0438,-0.0438,-0.0438,-0.0437,-0.0373,-0.0371,-0.037,0,0,0,0,0,0,0,0,0,0,0,0,0,-0.0436,-0.0438,-0.0511,-0.0511,-0.0511,-0.0484,-0.0483,-0.0483,-0.0438,-0.0438,-0.0437,-0.0437,-0.0373,-0.0372,-0.037,0,0,0,0,0,0,0,0,0,0,0,0,0,-0.0441,-0.0439,-0.0511,-0.0489,-0.0487,-0.0484,-0.0483,-0.0482,-0.0438,-0.0438,-0.0437,-0.0437,-0.0374,-0.0372,-0.037,-0.037,0,0,-0.0364,-0.0363,0,0,0,0,0,0,0,0,-0.0441,-0.0443,-0.0492,-0.0491,-0.0489,-0.0468,-0.0434,-0.0444,-0.0439,-0.0452,-0.0437,-0.0436,-0.0405,-0.04,-0.039,-0.0367,-0.0364,-0.0364,-0.0362,-0.0361,-0.0361,0,0,0,0,0,0,0,-0.0441,-0.0444,-0.0496,-0.0493,-0.049,-0.0451,-0.0451,-0.0435,-0.0428,-0.0451,-0.0449,-0.0453,-0.0402,-0.0392,-0.0388,-0.0363,-0.0364,-0.0362,-0.0361,-0.036,-0.0316,-0.0316,0,0,0,0,0,0,-0.0459,-0.0444,-0.0497,-0.0495,-0.0468,-0.0454,-0.0454,-0.0471,-0.0429,-0.0423,-0.0454,-0.0451,-0.0396,-0.0391,-0.0386,-0.0366,-0.0361,-0.036,-0.0358,-0.0316,-0.0316,-0.0316,0,0,0,0,0,0,-0.0458,-0.0464,-0.0498,-0.0471,-0.0474,-0.0457,-0.0476,-0.0471,-0.0463,-0.0432,-0.0425,-0.0451,-0.0395,-0.0389,-0.0371,-0.0363,-0.0359,-0.0357,-0.0316,-0.0316,-0.0316,-0.0336,0,0,0,0,0,0,-0.0456,-0.0464,-0.0476,-0.0474,-0.0476,-0.0495,-0.0477,-0.0471,-0.0468,-0.0465,-0.0428,-0.0421,-0.0394,-0.0375,-0.0369,-0.0361,-0.0355,-0.0316,-0.0316,-0.0316,-0.0335,-0.0337,-0.0338,0,0,0,0,0,-0.0453,-0.0467,-0.0477,-0.0483,-0.0496,-0.0496,-0.0492,-0.0474,-0.0469,-0.0464,-0.0442,-0.0422,-0.0371,-0.0373,-0.0367,-0.0357,-0.0316,-0.0316,-0.0316,-0.0335,-0.0336,-0.0338,0,0,0,0,0,0,-0.0435,-0.0465,-0.0475,-0.0497,-0.05,-0.049,-0.0481,-0.0481,-0.046,-0.0453,-0.0426,-0.0417,-0.04,-0.038,-0.0383,-0.0346,-0.0339,-0.0338,-0.0355,-0.0357,-0.0358,-0.0332,-0.0354,0,0,0,0,0,-0.0443,-0.0463,-0.0481,-0.0497,-0.0499,-0.0495,-0.0492,-0.0486,-0.0473,-0.0463,-0.0445,-0.0419,-0.0396,-0.0378,-0.0359,-0.034,-0.0308,-0.0329,-0.033,-0.0332,-0.0306,-0.0249,-0.0242,-0.0317,-0.0317,-0.0317,0,0,-0.0439,-0.0459,-0.0469,-0.0494,-0.0491,-0.0494,-0.0489,-0.0487,-0.0485,-0.046,-0.0446,-0.0429,-0.0395,-0.0372,-0.0361,-0.0352,-0.0303,-0.0332,-0.0333,-0.0306,-0.0248,-0.024,-0.0233,-0.0317,-0.0317,-0.0317,0,0,-0.0429,-0.0461,-0.0466,-0.0478,-0.0488,-0.049,-0.0495,-0.0496,-0.0487,-0.0485,-0.046,-0.0431,-0.0415,-0.0371,-0.0351,-0.0347,-0.0319,-0.0355,-0.0328,-0.0274,-0.0266,-0.0259,-0.0246,-0.0237,-0.0346,-0.0346,-0.0346,0,-0.0409,-0.0439,-0.0463,-0.0472,-0.0478,-0.0493,-0.0492,-0.0492,-0.0487,-0.0467,-0.0483,-0.0422,-0.0404,-0.0341,-0.0343,-0.0346,-0.0327,-0.0327,-0.0273,-0.0265,-0.0258,-0.0245,-0.0235,-0.0347,-0.0347,-0.0347,-0.0347,0,-0.0417,-0.043,-0.0432,-0.0456,-0.0466,-0.0468,-0.0484,-0.0482,-0.0488,-0.0476,-0.0435,-0.0408,-0.0358,-0.0361,-0.0352,-0.0287,-0.0299,-0.029,-0.0267,-0.0251,-0.024,-0.0229,-0.0349,-0.0348,-0.0348,-0.0348,0,0,-0.0383,-0.0423,-0.0426,-0.0424,-0.0458,-0.0461,-0.0465,-0.0453,-0.0422,-0.043,-0.0375,-0.0353,-0.0328,-0.0302,-0.0283,-0.0238,-0.0194,-0.0244,-0.024,-0.0226,-0.0102,-0.0117,-0.0107,-0.0178,-0.0175,-0.0173,-0.0129,0,-0.0367,-0.0381,-0.0411,-0.041,-0.0409,-0.043,-0.0427,-0.0421,-0.0406,-0.0361,-0.0328,-0.0278,-0.031,-0.0273,-0.0238,-0.0189,-0.0161,-0.0208,-0.0121,-0.0118,-0.0129,-0.0092,-0.0077,-0.0035,-0.0118,-0.0116,-0.0115,0,-0.0362,-0.037,-0.037,-0.0371,-0.0372,-0.0378,-0.0354,-0.0347,-0.0299,-0.0281,-0.023,-0.0206,-0.0139,-0.017,-0.009,-0.0121,-0.0114,-0.0093,-0.009,-0.0078,-0.0111,-0.0056,-0.0012,-0.0067,-0.0099,-0.01,-0.0101,0,-0.0324,-0.0337,-0.0334,-0.0343,-0.0351,-0.0343,-0.0343,-0.0312,-0.0271,-0.021,-0.0159,-0.0106,-0.0047,-0.0027,-0.0012,-0.0041,0.0074,0.0042,0.0028,0.0025,0.0073,0.0071,0.0088,0.01,0.0099,0.0099,0.0099,0,-0.0295,-0.028,-0.0315,-0.031,-0.0287,-0.0308,-0.0253,-0.0244,-0.0181,-0.0101,-0.0102,-0.002,-0.0003,0.0052,0.0033,0.0069,0.0107,0.0053,0.0055,0.006,0.0056,0.0038,-0.0011,0.0101,0.0101,0.01,0.01,0,-0.0236,-0.0259,-0.0252,-0.027,-0.0263,-0.0251,-0.0208,-0.0149,-0.0116,-0.0006,0.002,0.008,0.0148,0.0147,0.0204,0.015,0.0156,0.0167,0.0147,0.0146,0.0059,0.0008,0.0067,0.0078,0.0159,0.0159,0.016,0,-0.019,-0.0188,-0.0224,-0.0212,-0.0213,-0.0186,-0.0142,-0.0114,-0.004,0.0063,0.0137,0.0216,0.0304,0.0349,0.0289,0.0263,0.0206,0.0216,0.0168,0.0078,0.0024,0.0002,0.0005,0.0205,0.0205,0.0206,0.0206,0,-0.0113,-0.0152,-0.0178,-0.0145,-0.0116,-0.006,0.0,0.0068,0.0133,0.0234,0.0374,0.0449,0.0459,0.0471,0.0393,0.0339,0.0188,0.0222,0.0165,0.0099,0.0048,0.0051,0.0111,0.021,0.0209,0.0209,0.0209,0.0209,-0.0071,-0.0092,-0.0124,-0.0086,-0.0034,0.0083,0.0155,0.025,0.0393,0.0561,0.0579,0.0727,0.0633,0.0549,0.0439,0.0231,0.0237,0.0169,0.0123,0.0116,0.0112,0.0155,0.0231,0.0231,0.0231,0.0231,0.0231,0,-0.0019,-0.0048,-0.0027,0.0015,0.0114,0.0137,0.0276,0.0374,0.0567,0.0719,0.0858,0.0935,0.081,0.0616,0.0322,0.0165,0.0124,0.0082,0.0061,0.0077,0.0155,0.014,0.0159,0.0159,0.0159,0.0159,0.0159,0.0159,0.0002,0.0006,0.0009,0.0162,0.0221,0.0378,0.047,0.0612,0.0746,0.0973,0.1101,0.1177,0.1077,0.0506,0.0145,0.0048,-0.0019,-0.0044,-0.0066,-0.0041,-0.0037,-0.0032,-0.0056,-0.0079,-0.0079,-0.0095,-0.0096,-0.0096]}],[{"header":{"parameterUnit":"m.s-1","parameterCategory":2,"la1":30.2991,"la2":30.254,"lo1":-89.0895,"lo2":-89.0444,"dy":0.0017,"dx":0.0017,"nx":28,"ny":28,"refTime":"2023-04-27T21:00:00:Z","depth":"2","parameterNumber":2,"parameterNumberName":"U-component_of_CURRENTS"},"data":[0,0,0,0,0,0,0,0,0,0,0,0,0,0,0,0,0,0,0,0,0,0,0,0,0,0,0,0,0,0,0,0,0,0,0,0,0,0,0,0,0,0,0,0,0,0,0,0,0,0,0,0,0,0,0,0,0,0,0.25,0.2501,0,0.2492,0.2491,0.249,0.2454,0.2454,0.2454,0.2454,0.253,0.2532,0.2534,0,0,0,0,0,0,0,0,0,0,0,0,0,0.2708,0.2702,0.25,0.2501,0.2502,0.2492,0.2491,0.2489,0.2454,0.2454,0.2454,0.2454,0.253,0.2532,0.2534,0,0,0,0,0,0,0,0,0,0,0,0,0,0.2639,0.27,0.25,0.2491,0.2491,0.2492,0.2491,0.2489,0.2454,0.2454,0.2454,0.2454,0.2529,0.2532,0.2535,0.2546,0,0,0.2543,0.2544,0,0,0,0,0,0,0,0,0.2643,0.263,0.2491,0.2492,0.2492,0.2484,0.2593,0.2516,0.2454,0.2456,0.2454,0.2455,0.253,0.2532,0.2513,0.255,0.2553,0.2543,0.2545,0.2546,0.2547,0,0,0,0,0,0,0,0.2647,0.2632,0.2485,0.2493,0.2493,0.2565,0.2552,0.2578,0.2484,0.2456,0.2456,0.2473,0.2529,0.251,0.2515,0.2554,0.2543,0.2546,0.2547,0.2548,0.2754,0.2758,0,0,0,0,0,0,0.2657,0.2634,0.2486,0.2486,0.2582,0.2561,0.2546,0.2477,0.2482,0.2486,0.2473,0.2471,0.2505,0.2512,0.2518,0.263,0.2546,0.2549,0.255,0.275,0.2755,0.2759,0,0,0,0,0,0,0.266,0.264,0.2486,0.2576,0.2562,0.2556,0.248,0.2477,0.2509,0.2496,0.2499,0.2515,0.2506,0.2514,0.2521,0.263,0.255,0.2553,0.2746,0.2752,0.2757,0.2793,0,0,0,0,0,0,0.2664,0.2639,0.2627,0.2572,0.2558,0.2518,0.2481,0.2477,0.2521,0.252,0.2534,0.2537,0.2507,0.2516,0.2523,0.2632,0.2555,0.2741,0.2749,0.2755,0.2787,0.2799,0.281,0,0,0,0,0,0.267,0.2647,0.2623,0.261,0.2524,0.2521,0.252,0.2513,0.2524,0.2542,0.2509,0.2539,0.2571,0.2517,0.2526,0.2639,0.2738,0.2746,0.2755,0.2782,0.2797,0.281,0,0,0,0,0,0,0.277,0.2641,0.2614,0.2561,0.2561,0.252,0.2565,0.2553,0.2542,0.2559,0.2529,0.2528,0.2614,0.2609,0.2552,0.2728,0.2687,0.2697,0.2706,0.272,0.2731,0.2694,0.2557,0,0,0,0,0,0.2775,0.2683,0.2639,0.2602,0.2624,0.2607,0.2622,0.2609,0.2588,0.2587,0.257,0.2594,0.2651,0.2661,0.2702,0.2748,0.2764,0.2851,0.2862,0.2871,0.2852,0.2904,0.2916,0.2787,0.2787,0.2787,0,0,0.2826,0.2727,0.2697,0.2615,0.2626,0.2585,0.2615,0.2654,0.2599,0.2602,0.2553,0.2643,0.2679,0.2736,0.278,0.2739,0.2936,0.2882,0.2888,0.2864,0.2913,0.2925,0.2936,0.2793,0.2792,0.2791,0,0,0.2817,0.2789,0.2704,0.2688,0.2681,0.2651,0.2676,0.2657,0.2656,0.262,0.2658,0.2757,0.2777,0.2821,0.2852,0.2952,0.3014,0.3051,0.3045,0.3096,0.3105,0.3113,0.3215,0.3231,0.3029,0.3029,0.303,0,0.286,0.2733,0.2712,0.2632,0.2635,0.2674,0.2641,0.262,0.2584,0.2619,0.2611,0.2772,0.2799,0.2923,0.2951,0.2977,0.3037,0.2978,0.3105,0.3113,0.312,0.3221,0.3239,0.3032,0.3032,0.3032,0.3031,0,0.2785,0.2702,0.2696,0.2543,0.2551,0.2563,0.2537,0.255,0.2573,0.2573,0.2733,0.2786,0.2907,0.2971,0.2963,0.3114,0.3157,0.3129,0.3051,0.3134,0.3239,0.3256,0.3036,0.3035,0.3034,0.3034,0,0,0.2775,0.2648,0.264,0.2587,0.2526,0.2524,0.2481,0.2495,0.2528,0.2575,0.266,0.279,0.2953,0.3002,0.3118,0.313,0.3247,0.315,0.3152,0.322,0.3425,0.3289,0.3295,0.325,0.3252,0.3254,0.3499,0,0.2718,0.2577,0.2517,0.2428,0.2398,0.2418,0.2369,0.2396,0.2462,0.2541,0.2722,0.2863,0.2933,0.308,0.3121,0.3221,0.3287,0.3186,0.3362,0.3367,0.3207,0.3306,0.2939,0.311,0.3516,0.3518,0.352,0,0.2647,0.2551,0.2482,0.2387,0.2391,0.2338,0.2394,0.2356,0.2481,0.2566,0.2786,0.2946,0.3124,0.3128,0.3338,0.3288,0.3377,0.3407,0.3417,0.327,0.3259,0.3085,0.3126,0.3549,0.3547,0.3545,0.3543,0,0.2659,0.2526,0.2487,0.2458,0.236,0.2366,0.234,0.2412,0.2445,0.2651,0.2761,0.3011,0.3171,0.3293,0.3426,0.3411,0.3579,0.3567,0.3547,0.3543,0.3246,0.3208,0.3693,0.3693,0.3692,0.3691,0.3691,0,0.2587,0.2527,0.251,0.2458,0.2419,0.2401,0.2411,0.2425,0.2556,0.263,0.2845,0.2983,0.3204,0.3354,0.3456,0.3559,0.3644,0.3563,0.3581,0.3258,0.3221,0.3588,0.3573,0.3701,0.3699,0.3697,0.3695,0,0.2528,0.2526,0.2428,0.2387,0.2397,0.2369,0.237,0.2405,0.2541,0.2662,0.2755,0.2994,0.3168,0.3363,0.3542,0.3585,0.3682,0.3703,0.3334,0.33,0.3628,0.3612,0.3734,0.3731,0.3729,0.3726,0.3725,0,0.2433,0.2425,0.2382,0.2362,0.2327,0.2321,0.2322,0.2389,0.2443,0.2646,0.271,0.2949,0.3078,0.3308,0.3343,0.3505,0.3658,0.3317,0.3177,0.3619,0.3626,0.3615,0.3604,0.2862,0.2853,0.2846,0.284,0,0.2244,0.2298,0.2248,0.2252,0.2243,0.2228,0.2253,0.2287,0.2406,0.2514,0.2663,0.2784,0.2933,0.2885,0.3057,0.3107,0.3247,0.3174,0.3732,0.2873,0.2804,0.2809,0.2825,0.2776,0.2782,0.2787,0.2791,0.2793,0.2121,0.2079,0.2115,0.2147,0.2159,0.2201,0.2141,0.2198,0.2263,0.235,0.2489,0.25,0.2536,0.2547,0.2577,0.2627,0.2864,0.2818,0.2838,0.2865,0.2684,0.2609,0.2518,0.2523,0.2527,0.2531,0.2534,0,0.1953,0.2021,0.2017,0.2044,0.2093,0.2143,0.2156,0.2075,0.2093,0.2105,0.2162,0.1941,0.1916,0.2019,0.194,0.2034,0.2001,0.2041,0.1944,0.2006,0.2062,0.1838,0.145,0.1447,0.1445,0.1443,0,0,0.1881,0.1867,0.1951,0.2045,0.2107,0.2047,0.2045,0.1919,0.1835,0.1692,0.1604,0.1674,0.1801,0.15,0.1543,0.1477,0.1728,0.1434,0.2282,0.2215,0.2268,0.2475,0.2195,0,0,0,0,0]},{"header":{"parameterUnit":"m.s-1","parameterCategory":2,"la1":30.2991,"la2":30.254,"lo1":-89.0895,"lo2":-89.0444,"dy":0.0017,"dx":0.0017,"nx":28,"ny":28,"refTime":"2023-04-27T21:00:00:Z","depth":"2","parameterNumber":3,"parameterNumberName":"V-component_of_CURRENTS"},"data":[0,0,0,0,0,0,0,0,0,0,0,0,0,0,0,0,0,0,0,0,0,0,0,0,0,0,0,0,0,0,0,0,0,0,0,0,0,0,0,0,0,0,0,0,0,0,0,0,0,0,0,0,0,0,0,0,0,0,-0.0406,-0.0406,0,-0.0398,-0.0397,-0.0397,-0.0376,-0.0376,-0.0376,-0.0377,-0.0423,-0.0424,-0.0425,0,0,0,0,0,0,0,0,0,0,0,0,0,-0.0313,-0.0315,-0.0406,-0.0406,-0.0407,-0.0398,-0.0397,-0.0396,-0.0376,-0.0376,-0.0377,-0.0377,-0.0423,-0.0424,-0.0425,0,0,0,0,0,0,0,0,0,0,0,0,0,-0.0326,-0.0315,-0.0405,-0.0402,-0.0403,-0.0399,-0.0397,-0.0396,-0.0376,-0.0376,-0.0377,-0.0377,-0.0423,-0.0424,-0.0425,-0.0422,0,0,-0.043,-0.043,0,0,0,0,0,0,0,0,-0.0325,-0.0328,-0.0402,-0.0403,-0.0403,-0.0396,-0.0382,-0.0411,-0.0375,-0.0376,-0.0377,-0.0377,-0.0425,-0.0426,-0.041,-0.0425,-0.0427,-0.043,-0.043,-0.0431,-0.0431,0,0,0,0,0,0,0,-0.0325,-0.0328,-0.0393,-0.0403,-0.0404,-0.0372,-0.0374,-0.0386,-0.0392,-0.0376,-0.0377,-0.039,-0.0424,-0.0408,-0.0411,-0.0427,-0.043,-0.0431,-0.0432,-0.0432,-0.0457,-0.0457,0,0,0,0,0,0,-0.0348,-0.0328,-0.0394,-0.0394,-0.0375,-0.0374,-0.0376,-0.0391,-0.039,-0.0393,-0.039,-0.039,-0.0406,-0.041,-0.0413,-0.0431,-0.0431,-0.0432,-0.0433,-0.0457,-0.0457,-0.0457,0,0,0,0,0,0,-0.0346,-0.0354,-0.0394,-0.0368,-0.0372,-0.0377,-0.0392,-0.039,-0.0395,-0.0402,-0.0404,-0.04,-0.0406,-0.0411,-0.0438,-0.0432,-0.0433,-0.0434,-0.0457,-0.0457,-0.0457,-0.0454,0,0,0,0,0,0,-0.0343,-0.0353,-0.0367,-0.037,-0.0375,-0.0401,-0.0392,-0.039,-0.0406,-0.0405,-0.0411,-0.0414,-0.0407,-0.0436,-0.044,-0.0434,-0.0435,-0.0457,-0.0457,-0.0457,-0.0454,-0.0453,-0.0453,0,0,0,0,0,-0.034,-0.0343,-0.0368,-0.0376,-0.0395,-0.0402,-0.04,-0.0399,-0.0406,-0.0404,-0.0415,-0.0415,-0.0436,-0.0438,-0.0442,-0.0436,-0.0458,-0.0457,-0.0457,-0.0454,-0.0453,-0.0453,0,0,0,0,0,0,-0.0321,-0.0343,-0.0369,-0.0385,-0.0407,-0.0402,-0.0399,-0.0412,-0.0415,-0.042,-0.0425,-0.0428,-0.045,-0.0446,-0.0448,-0.0441,-0.0443,-0.0443,-0.0439,-0.0439,-0.0438,-0.0411,-0.0436,0,0,0,0,0,-0.0328,-0.0323,-0.0363,-0.0376,-0.039,-0.0404,-0.0408,-0.0417,-0.0425,-0.0426,-0.0437,-0.0442,-0.0445,-0.0448,-0.0455,-0.0457,-0.0436,-0.0452,-0.0452,-0.0451,-0.0431,-0.0396,-0.039,-0.0456,-0.0456,-0.0456,0,0,-0.0332,-0.0337,-0.0343,-0.037,-0.0381,-0.0393,-0.0404,-0.0417,-0.0427,-0.0434,-0.0446,-0.0455,-0.0451,-0.045,-0.0456,-0.0448,-0.0425,-0.0451,-0.0451,-0.043,-0.0395,-0.0388,-0.0382,-0.0456,-0.0456,-0.0456,0,0,-0.0298,-0.0341,-0.0318,-0.0337,-0.0364,-0.0387,-0.0403,-0.0424,-0.0432,-0.0461,-0.0457,-0.0454,-0.0482,-0.0448,-0.0441,-0.0442,-0.0435,-0.0458,-0.0421,-0.0388,-0.0382,-0.0376,-0.0355,-0.0347,-0.0444,-0.0444,-0.0444,0,-0.0287,-0.0294,-0.0317,-0.0303,-0.0328,-0.0391,-0.0397,-0.0413,-0.0442,-0.0444,-0.0472,-0.0462,-0.0468,-0.0424,-0.0422,-0.0437,-0.0429,-0.0426,-0.0386,-0.0379,-0.0373,-0.0353,-0.0344,-0.0444,-0.0444,-0.0444,-0.0444,0,-0.0274,-0.026,-0.0252,-0.0266,-0.0292,-0.0313,-0.0365,-0.0392,-0.0438,-0.0447,-0.0447,-0.044,-0.0421,-0.0426,-0.043,-0.038,-0.0393,-0.0401,-0.0385,-0.0366,-0.0347,-0.0338,-0.0444,-0.0444,-0.0444,-0.0444,0,0,-0.0286,-0.0242,-0.0245,-0.023,-0.0286,-0.0304,-0.0338,-0.0376,-0.0377,-0.0412,-0.0386,-0.0388,-0.0381,-0.0369,-0.0358,-0.0323,-0.0286,-0.0346,-0.0344,-0.032,-0.0227,-0.0209,-0.0197,-0.0297,-0.0295,-0.0294,-0.0235,0,-0.027,-0.021,-0.0224,-0.0214,-0.0202,-0.0271,-0.0293,-0.0332,-0.0364,-0.0356,-0.0347,-0.0326,-0.036,-0.0337,-0.0312,-0.0284,-0.0261,-0.0301,-0.0252,-0.0249,-0.0231,-0.0185,-0.0217,-0.0164,-0.0226,-0.0225,-0.0224,0,-0.0281,-0.0226,-0.0192,-0.0161,-0.0175,-0.0199,-0.0256,-0.0277,-0.0284,-0.0294,-0.027,-0.0265,-0.0207,-0.0247,-0.0187,-0.0219,-0.0225,-0.0213,-0.0211,-0.0181,-0.0213,-0.019,-0.0146,-0.0209,-0.021,-0.0211,-0.0212,0,-0.0277,-0.0222,-0.0191,-0.0193,-0.0179,-0.0196,-0.0229,-0.0257,-0.0251,-0.0236,-0.0203,-0.0172,-0.0123,-0.0125,-0.0115,-0.0154,-0.0053,-0.01,-0.009,-0.009,-0.0095,-0.0098,-0.0066,-0.0066,-0.0066,-0.0066,-0.0067,0,-0.026,-0.0227,-0.0185,-0.0159,-0.0158,-0.0175,-0.0178,-0.0199,-0.0181,-0.0134,-0.0155,-0.008,-0.0092,-0.0044,-0.0073,-0.0034,-0.002,-0.006,-0.0059,-0.0098,-0.0101,-0.0123,-0.013,-0.0064,-0.0065,-0.0065,-0.0065,0,-0.0229,-0.0203,-0.015,-0.0128,-0.0133,-0.0141,-0.0143,-0.0123,-0.0123,-0.0048,-0.0031,0.0012,0.0082,0.0074,0.0105,0.005,0.0066,0.0064,0.0017,0.0012,-0.0014,-0.0022,0.0083,0.0085,0.0086,0.0087,0.0088,0,-0.0175,-0.0144,-0.0125,-0.0116,-0.0104,-0.0109,-0.0101,-0.0102,-0.0054,0.0025,0.009,0.0168,0.0271,0.0315,0.0223,0.0196,0.016,0.0117,0.0045,0.0019,0.0008,-0.0002,-0.0011,0.0026,0.0026,0.0026,0.0027,0,-0.0078,-0.0106,-0.0095,-0.006,-0.0051,-0.0011,0.0016,0.0072,0.0102,0.0213,0.0374,0.0466,0.0455,0.0436,0.0343,0.0285,0.0117,0.0122,0.0137,-0.0005,-0.0029,-0.0042,-0.005,0.0029,0.0029,0.0028,0.0028,0.0028,-0.0031,-0.0043,-0.0043,-0.0028,0.0009,0.0109,0.0177,0.0266,0.0412,0.0585,0.0611,0.0743,0.0599,0.0524,0.0389,0.0185,0.0193,0.01,0.0097,0.0094,0.0079,0.0059,0.013,0.013,0.013,0.0131,0.0131,0,0.0035,-0.0014,0.0011,0.0048,0.0128,0.0145,0.0277,0.039,0.0625,0.074,0.0912,0.0834,0.0769,0.058,0.0277,0.0129,0.0071,0.0077,0.002,0.0019,0.0019,-0.0003,0.0027,0.0026,0.0026,0.0026,0,0,0.0047,0.0039,0.003,0.0158,0.021,0.0377,0.0483,0.0668,0.0787,0.0979,0.1029,0.1083,0.0826,0.0612,0.0382,0.0193,0.0141,0.0154,0.0249,0.0205,0.0207,0.0039,0.0006,0,0,0,0,0]}],[{"header":{"parameterUnit":"m.s-1","parameterCategory":2,"la1":30.2991,"la2":30.254,"lo1":-89.0895,"lo2":-89.0444,"dy":0.0017,"dx":0.0017,"nx":28,"ny":28,"refTime":"2023-04-27T21:00:00:Z","depth":"4","parameterNumber":2,"parameterNumberName":"U-component_of_CURRENTS"},"data":[0,0,0,0,0,0,0,0,0,0,0,0,0,0,0,0,0,0,0,0,0,0,0,0,0,0,0,0,0,0,0,0,0,0,0,0,0,0,0,0,0,0,0,0,0,0,0,0,0,0,0,0,0,0,0,0,0,0,-0.0355,-0.0355,0,-0.0347,-0.0346,-0.0346,-0.0338,-0.0338,-0.0338,-0.0338,-0.0256,-0.0253,-0.0251,0,0,0,0,0,0,0,0,0,0,0,0,0,-0.0408,-0.0406,-0.0355,-0.0355,-0.0355,-0.0347,-0.0346,-0.0346,-0.0338,-0.0338,-0.0338,-0.0339,-0.0256,-0.0253,-0.0251,0,0,0,0,0,0,0,0,0,0,0,0,0,-0.0387,-0.0405,-0.0355,-0.0353,-0.0353,-0.0347,-0.0346,-0.0346,-0.0338,-0.0338,-0.0338,-0.0339,-0.0257,-0.0254,-0.025,-0.0221,0,0,-0.0239,-0.0238,0,0,0,0,0,0,0,0,-0.0388,-0.0385,-0.0353,-0.0353,-0.0353,-0.0347,-0.0335,-0.0302,-0.0338,-0.034,-0.0338,-0.0339,-0.0281,-0.0276,-0.0269,-0.0217,-0.0214,-0.0239,-0.0237,-0.0235,-0.0234,0,0,0,0,0,0,0,-0.0389,-0.0385,-0.0348,-0.0353,-0.0353,-0.0368,-0.0365,-0.0329,-0.0304,-0.0339,-0.034,-0.0345,-0.028,-0.0273,-0.0267,-0.0212,-0.0239,-0.0236,-0.0233,-0.0232,-0.0031,-0.0028,0,0,0,0,0,0,-0.0395,-0.0386,-0.0348,-0.0348,-0.0376,-0.0367,-0.0363,-0.0345,-0.0306,-0.0302,-0.0344,-0.0344,-0.0279,-0.0271,-0.0264,-0.0096,-0.0235,-0.0232,-0.023,-0.0034,-0.003,-0.0027,0,0,0,0,0,0,-0.0395,-0.039,-0.0348,-0.0371,-0.0368,-0.0366,-0.0346,-0.0345,-0.0341,-0.0312,-0.0306,-0.0342,-0.0279,-0.0269,-0.0179,-0.0097,-0.023,-0.0227,-0.0038,-0.0033,-0.0029,0.0157,0,0,0,0,0,0,-0.0396,-0.039,-0.038,-0.0371,-0.0367,-0.0354,-0.0346,-0.0345,-0.0345,-0.0345,-0.0307,-0.03,-0.0278,-0.0184,-0.0175,-0.0095,-0.0224,-0.0042,-0.0036,-0.003,0.0147,0.0168,0.0186,0,0,0,0,0,-0.0398,-0.0383,-0.0378,-0.0375,-0.0351,-0.0355,-0.0354,-0.0352,-0.0345,-0.0347,-0.0273,-0.0301,-0.0141,-0.0177,-0.0168,-0.0085,-0.0045,-0.0038,-0.0031,0.0139,0.0164,0.0185,0,0,0,0,0,0,-0.0404,-0.0381,-0.0376,-0.0355,-0.036,-0.0355,-0.0356,-0.0353,-0.0301,-0.0281,-0.0251,-0.0236,-0.0127,-0.0141,-0.0182,-0.0014,-0.0102,-0.0093,0.0023,0.0047,0.0065,0.0058,-0.0221,0,0,0,0,0,-0.04,-0.0372,-0.0374,-0.0355,-0.0361,-0.0358,-0.0358,-0.035,-0.031,-0.0291,-0.0217,-0.0155,-0.0092,-0.0052,-0.0,0.0091,0.0009,0.0144,0.0164,0.018,0.0179,0.013,0.0144,-0.0004,-0.0004,-0.0004,0,0,-0.0401,-0.0379,-0.0368,-0.0354,-0.0355,-0.0329,-0.0358,-0.0351,-0.0279,-0.0285,-0.0125,-0.0083,-0.0055,0.0072,0.0116,0.0073,0.0179,0.0189,0.0204,0.0193,0.0138,0.0152,0.0165,0.0001,0.0,-0.0,0,0,-0.0387,-0.0369,-0.0351,-0.0345,-0.0339,-0.0315,-0.0315,-0.0268,-0.0209,-0.007,-0.0046,0.0044,0.017,0.0214,0.0241,0.0382,0.0279,0.0401,0.0504,0.0459,0.0469,0.0478,0.0384,0.0383,0.0415,0.0415,0.0415,0,-0.0387,-0.0343,-0.0353,-0.0332,-0.0299,-0.0304,-0.0263,-0.0206,-0.0103,-0.0024,0.0007,0.0206,0.024,0.0345,0.0428,0.0428,0.0362,0.0421,0.0482,0.0488,0.0494,0.0395,0.0391,0.0425,0.0424,0.0423,0.0422,0,-0.0362,-0.0321,-0.0312,-0.0254,-0.0231,-0.0196,-0.013,-0.0038,0.0068,0.0146,0.0313,0.0387,0.0488,0.0529,0.0546,0.0617,0.0543,0.0508,0.0419,0.052,0.0409,0.0402,0.0439,0.0435,0.0433,0.043,0,0,-0.0355,-0.0298,-0.0293,-0.024,-0.0172,-0.0144,-0.0007,0.0113,0.0201,0.0363,0.0481,0.0656,0.068,0.0709,0.072,0.0716,0.0725,0.0657,0.065,0.0556,0.0588,0.0649,0.0644,0.0703,0.0703,0.0703,0.0491,0,-0.0319,-0.0258,-0.0218,-0.0113,-0.0069,0.0006,0.0126,0.0239,0.0365,0.0488,0.0575,0.0686,0.0745,0.0788,0.0812,0.0737,0.0716,0.0783,0.051,0.05,0.0538,0.0643,0.0704,0.0485,0.0483,0.0481,0.048,0,-0.03,-0.0242,-0.015,-0.0017,0.0008,0.0094,0.0273,0.037,0.051,0.0601,0.0718,0.0762,0.0832,0.0828,0.0782,0.0823,0.0736,0.0665,0.0654,0.0639,0.0551,0.0364,0.0464,0.0466,0.0467,0.0468,0.0469,0,-0.0303,-0.0185,-0.0089,-0.0048,0.009,0.0193,0.0279,0.0426,0.0502,0.0637,0.0682,0.0783,0.0796,0.0754,0.0664,0.073,0.051,0.0561,0.0515,0.0512,0.0428,0.042,0.0483,0.0484,0.0484,0.0485,0.0485,0,-0.0262,-0.0197,-0.007,-0.0026,0.0117,0.0208,0.0339,0.0445,0.0539,0.0605,0.0718,0.075,0.0782,0.0683,0.0618,0.053,0.0466,0.0547,0.0488,0.051,0.0515,0.042,0.0415,0.0477,0.0478,0.048,0.0481,0,-0.0293,-0.0216,-0.0109,0.0053,0.0108,0.0207,0.0329,0.039,0.0501,0.0565,0.0601,0.0693,0.0682,0.0605,0.0473,0.0462,0.0343,0.0283,0.024,0.0176,0.0397,0.0405,0.0336,0.0337,0.0338,0.0339,0.0339,0,-0.0301,-0.0254,-0.0104,-0.0035,0.0053,0.0181,0.0233,0.0358,0.0391,0.0528,0.0521,0.0577,0.0638,0.0453,0.0424,0.029,0.0285,0.017,0.0433,0.0446,0.0394,0.04,0.0407,0.0341,0.0341,0.0341,0.0341,0,-0.0305,-0.0262,-0.0178,-0.0089,0.0011,0.0085,0.017,0.0184,0.0315,0.0405,0.0494,0.0557,0.0531,0.0525,0.0365,0.0273,0.0256,0.0182,0.0185,0.0432,0.045,0.0399,0.0404,0.0344,0.0344,0.0343,0.0343,0,-0.0317,-0.0265,-0.0195,-0.0096,-0.0031,-0.0001,0.0052,0.0123,0.0182,0.0359,0.0368,0.0455,0.0523,0.0504,0.0342,0.0298,0.0413,0.0397,0.0392,0.0388,0.0522,0.056,0.0453,0,0,0,0,0,-0.0301,-0.0256,-0.0213,-0.0107,-0.0088,-0.005,0.0008,0.005,0.0162,0.0229,0.0329,0.0348,0.0411,0.0412,0.0401,0.0388,0.035,0.037,0.0313,0.036,0.0357,0.052,0,0,0,0,0,0,-0.0276,-0.0227,-0.022,-0.018,-0.0139,-0.0115,-0.0082,-0.0005,0.0032,0.0175,0.0183,0.0341,0.0342,0.0421,0.0402,0.0403,0.0365,0.0424,0.0424,0.0362,0.0359,0.0356,0.0523,0,0,0,0,0]},{"header":{"parameterUnit":"m.s-1","parameterCategory":2,"la1":30.2991,"la2":30.254,"lo1":-89.0895,"lo2":-89.0444,"dy":0.0017,"dx":0.0017,"nx":28,"ny":28,"refTime":"2023-04-27T21:00:00:Z","depth":"4","parameterNumber":3,"parameterNumberName":"V-component_of_CURRENTS"},"data":[0,0,0,0,0,0,0,0,0,0,0,0,0,0,0,0,0,0,0,0,0,0,0,0,0,0,0,0,0,0,0,0,0,0,0,0,0,0,0,0,0,0,0,0,0,0,0,0,0,0,0,0,0,0,0,0,0,0,0.064,0.064,0,0.0696,0.0697,0.0698,0.0776,0.0777,0.0778,0.0779,0.0854,0.0855,0.0856,0,0,0,0,0,0,0,0,0,0,0,0,0,0.0616,0.0617,0.064,0.064,0.064,0.0695,0.0697,0.0698,0.0776,0.0777,0.0778,0.0779,0.0853,0.0855,0.0856,0,0,0,0,0,0,0,0,0,0,0,0,0,0.0651,0.0617,0.064,0.0681,0.0685,0.0695,0.0697,0.0699,0.0776,0.0777,0.0778,0.0779,0.0853,0.0855,0.0857,0.0846,0,0,0.0863,0.0863,0,0,0,0,0,0,0,0,0.0649,0.0652,0.0675,0.0678,0.0682,0.0725,0.0716,0.0747,0.0776,0.0748,0.0779,0.078,0.0807,0.0813,0.083,0.0849,0.0853,0.0863,0.0864,0.0865,0.0865,0,0,0,0,0,0,0,0.0646,0.065,0.0668,0.0674,0.0679,0.0701,0.0708,0.0723,0.0776,0.0751,0.0755,0.0751,0.0811,0.0828,0.0832,0.0854,0.0863,0.0864,0.0866,0.0866,0.0831,0.0829,0,0,0,0,0,0,0.0624,0.0648,0.0666,0.0669,0.0661,0.07,0.0708,0.0715,0.0776,0.0784,0.075,0.0754,0.0824,0.083,0.0835,0.0873,0.0865,0.0867,0.0868,0.0833,0.083,0.0828,0,0,0,0,0,0,0.0624,0.0626,0.0664,0.0654,0.066,0.0699,0.0706,0.0715,0.0793,0.0773,0.0784,0.0823,0.0825,0.0832,0.0892,0.0874,0.0867,0.0869,0.0835,0.0832,0.0829,0.0918,0,0,0,0,0,0,0.0623,0.0626,0.0642,0.0653,0.0659,0.0714,0.0705,0.0715,0.0781,0.0789,0.0838,0.0843,0.0827,0.0889,0.0894,0.0877,0.0871,0.0838,0.0834,0.083,0.0918,0.0918,0.0919,0,0,0,0,0,0.0622,0.0632,0.0643,0.0645,0.0675,0.0715,0.0724,0.0757,0.0784,0.0831,0.0857,0.0845,0.0863,0.0892,0.0897,0.088,0.084,0.0835,0.083,0.0917,0.0918,0.0919,0,0,0,0,0,0,0.0629,0.064,0.0653,0.0666,0.0708,0.0727,0.0755,0.0795,0.0855,0.0853,0.0871,0.0878,0.0903,0.0878,0.091,0.0843,0.0827,0.0824,0.0891,0.0892,0.0892,0.0907,0.0872,0,0,0,0,0,0.0634,0.0651,0.0673,0.0692,0.0709,0.075,0.0777,0.0796,0.0833,0.0864,0.0929,0.0919,0.0873,0.0885,0.0867,0.0877,0.0819,0.0843,0.0844,0.0845,0.0852,0.0715,0.0705,0.0812,0.0812,0.0813,0,0,0.063,0.0647,0.0652,0.0696,0.0722,0.0756,0.0774,0.081,0.0858,0.0856,0.0983,0.0955,0.0878,0.0869,0.0872,0.0863,0.0791,0.0839,0.0842,0.0848,0.0709,0.0699,0.069,0.0809,0.081,0.081,0,0,0.064,0.066,0.0683,0.072,0.0758,0.0778,0.0809,0.0881,0.0937,0.1022,0.0985,0.0969,0.1003,0.0919,0.0867,0.0859,0.0803,0.0833,0.0859,0.0727,0.0718,0.0709,0.067,0.0656,0.0829,0.0829,0.0829,0,0.0651,0.0672,0.0701,0.0739,0.0771,0.0802,0.0845,0.0888,0.0991,0.1029,0.1071,0.1029,0.1004,0.0887,0.088,0.0864,0.081,0.0879,0.0731,0.0721,0.071,0.0671,0.0656,0.0833,0.0832,0.0832,0.0831,0,0.0654,0.0703,0.072,0.0779,0.0829,0.0858,0.0909,0.0992,0.1067,0.1103,0.1106,0.106,0.1025,0.0978,0.0944,0.0821,0.082,0.0759,0.0746,0.0706,0.0667,0.0649,0.0838,0.0837,0.0835,0.0834,0,0,0.0635,0.0707,0.0724,0.078,0.0847,0.0892,0.0961,0.1027,0.1066,0.1137,0.1158,0.1083,0.1072,0.1006,0.0925,0.0814,0.0724,0.0775,0.0766,0.0767,0.0495,0.0505,0.0486,0.0634,0.063,0.0627,0.0518,0,0.065,0.0712,0.0754,0.0854,0.0904,0.0962,0.1038,0.1095,0.1144,0.1183,0.1085,0.1073,0.1066,0.1029,0.0919,0.0744,0.0672,0.0764,0.0506,0.0501,0.0536,0.0462,0.0615,0.0504,0.05,0.0497,0.0495,0,0.0655,0.0709,0.0795,0.0919,0.0947,0.1046,0.1149,0.1204,0.1211,0.1233,0.118,0.1117,0.0976,0.0962,0.0706,0.0766,0.0668,0.0546,0.0537,0.05,0.0474,0.0532,0.0462,0.0464,0.0467,0.0469,0.0471,0,0.0656,0.075,0.0828,0.0867,0.0999,0.1114,0.1205,0.127,0.1287,0.1271,0.1223,0.1093,0.0989,0.0823,0.0647,0.0663,0.0351,0.0328,0.0259,0.0262,0.0256,0.0265,0.0165,0.0165,0.0165,0.0166,0.0166,0,0.0656,0.0733,0.0868,0.0945,0.1073,0.1176,0.1305,0.1361,0.1356,0.1304,0.1264,0.1113,0.094,0.0749,0.0618,0.0392,0.034,0.0259,0.0207,0.0302,0.0317,0.0247,0.0258,0.0162,0.0162,0.0163,0.0164,0,0.0635,0.0713,0.0837,0.1024,0.111,0.1219,0.139,0.1416,0.1434,0.1333,0.1309,0.1107,0.0865,0.0709,0.0411,0.0346,0.0134,0.0084,0.0257,0.0219,0.0158,0.0175,-0.0015,-0.0016,-0.0017,-0.0018,-0.0018,0,0.0619,0.0682,0.09,0.1007,0.1137,0.1308,0.1406,0.1479,0.1432,0.1276,0.1148,0.0952,0.0808,0.0422,0.0271,0.0077,0.0055,0.002,0.0052,0.0158,0.0126,0.0145,0.0162,-0.002,-0.002,-0.002,-0.0021,0,0.0583,0.0677,0.0753,0.0992,0.1166,0.1244,0.1369,0.1313,0.1285,0.1283,0.1001,0.0842,0.0568,0.0347,0.0242,0.0077,0.0068,0.0009,0.0011,0.004,0.0149,0.0123,0.0141,-0.0024,-0.0024,-0.0023,-0.0023,0,0.054,0.0559,0.0711,0.0909,0.1091,0.114,0.1213,0.1159,0.1119,0.0964,0.0853,0.0639,0.0546,0.0337,0.0178,0.0088,0.006,0.0066,0.0064,0.0067,0.0133,0.0286,0.0094,0,0,0,0,0,0.0474,0.0492,0.0639,0.082,0.0997,0.1115,0.1136,0.1147,0.1099,0.0913,0.0901,0.0665,0.044,0.0291,0.0194,0.0135,0.0033,0.0021,0.0038,-0.0043,-0.0039,0.0025,0,0,0,0,0,0,0.0433,0.0496,0.0562,0.0716,0.0855,0.0978,0.0995,0.096,0.0833,0.0806,0.066,0.069,0.0438,0.0521,0.0212,0.0177,0.0182,-0.0059,-0.006,-0.0046,-0.0042,-0.0039,0.0028,0,0,0,0,0]}]]